User: anonymous
Location: Whispering Pines Observatory
(39.4020°N, 104.7430°W)
Time: 19:04:50
(UTC-06:00)
Language:

MOS 1 Rocket - Orbit

View from above orbital plane
View from above orbital plane
View from above satellite
View from above satellite

Ground track
Ground track

The orbit data is extracted from the following two-line orbital elements,

1 17528U 87018B   14206.79476334  .00000116  00000-0  35474-4 0  4241
2 17528 097.4622 271.7526 0153771 012.4547 119.4834 14.50008541446598
Epoch (UTC): 25 July 2014 19:04:27
Eccentricity: 0.0153771
inclination: 97.4622°
perigee height: 616 km
apogee height: 835 km
right ascension of ascending node: 271.7526°
argument of perigee: 12.4547°
revolutions per day: 14.50008541
mean anomaly at epoch: 119.4834°
orbit number at epoch: 44659

The dashed part of the orbit path shows where the satellite is in the earth's shadow,  

DLR